Regional Weather Roundup
Issued by NWS

Home | Current Version | Previous Version | Text Only | Print | Product List | Glossary On
Versions: 1 2 3 4 5 6 7 8 9 10 11 12 13 14 15 16 17 18 19 20 21 22 23 24 25 26 27 28 29 30 31 32 33 34 35 36 37 38 39 40 41 42 43 44 45 46 47 48 49 50
000
ASUS44 KLIX 201810
RWRLA
LOUISIANA WEATHER ROUNDUP
NATIONAL WEATHER SERVICE NEW ORLEANS LA
1200 PM CST SAT DEC 20 2014

NOTE: "FAIR" INDICATES FEW OR NO CLOUDS BELOW 12,000 FEET WITH NO
      SIGNIFICANT WEATHER AND/OR OBSTRUCTIONS TO VISIBILITY.
      SKY/WX - SKY CONDITION AND SIGNIFICANT WEATHER.
      TMP - AIR TEMPERATURE.    DP   - DEWPOINT TEMPERATURE.
      RH  - RELATIVE HUMIDITY.  PRES - PRESSURE.
      HX  - HEAT INDEX.         WCI  - WIND CHILL INDEX.

*  THESE STATIONS ARE NOT NWS OR FAA STATIONS AND ARE NOT UNDER
   NWS QUALITY CONTROL.

LAZ040-048-061>063-065-066-069-201900-
SOUTHEAST LOUISIANA

CITY           SKY/WX    TMP DP  RH WIND       PRES   REMARKS
N.O. AUDUBON     N/A     55  50  81 MISG        N/A
6HR MIN TEMP:  49; 6HR MAX TEMP:  55;

N.O. INTL ARPT CLOUDY    52  48  86 NE14      30.14F
6HR MIN TEMP:  50; 6HR MAX TEMP:  52;

N.O. LAKEFRONT CLOUDY    54  48  80 N13       30.14F
6HR MIN TEMP:  51; 6HR MAX TEMP:  55;

N.O. DOWNTOWN* CLOUDY    54  45  71 N8        30.14F
6HR MIN TEMP:  48; 6HR MAX TEMP:  54;

SLIDELL        CLOUDY    53  47  79 N12       30.13F
6HR MIN TEMP:  48; 6HR MAX TEMP:  54;

BATON ROUGE    CLOUDY    50  46  86 N7        30.16F
6HR MIN TEMP:  48; 6HR MAX TEMP:  50;

BOOTHVILLE     CLOUDY    55  53  93 NE13G20   30.11F
6HR MIN TEMP:  54; 6HR MAX TEMP:  56;

BELLE CHASSE   CLOUDY    56  50  80 N8        30.12F
6HR MIN TEMP:  49; 6HR MAX TEMP:  56;

BOGALUSA*        N/A     51  46  82 NE12      30.18F
6HR MIN TEMP:  48; 6HR MAX TEMP:  51;

GALLIANO*      CLOUDY    56  53  88 MISG      30.12F
6HR MIN TEMP:  51; 6HR MAX TEMP:  56; 6HR PCP:  0.01;

NEW ROADS*     CLOUDY    49  47  92 N7        30.18F
6HR MIN TEMP:  47; 6HR MAX TEMP:  49;

GONZALES*      CLOUDY    50  50 100 N7        30.15F
6HR MIN TEMP:  48; 6HR MAX TEMP:  50;

HAMMOND*       NOT AVBL
HOUMA*         CLOUDY    54  50  87 N14       30.12F
PORT FOURCHON* CLOUDY    55  52  88 NE16      30.14F

$$

LAZ041-044-053-054-201900-
SOUTHWEST LOUISIANA

CITY           SKY/WX    TMP DP  RH WIND       PRES   REMARKS
LAKE CHARLES   CLOUDY    52  48  86 NE12      30.17F
6HR MIN TEMP:  49; 6HR MAX TEMP:  52;

LAFAYETTE      CLOUDY    50  48  93 N14       30.17F
6HR MIN TEMP:  48; 6HR MAX TEMP:  50;

PATTERSON      CLOUDY    52  48  87 NE12      30.15F
6HR MIN TEMP:  48; 6HR MAX TEMP:  52;

SALT POINT       N/A     55  50  83 VRB7      30.13F
6HR MIN TEMP:  53; 6HR MAX TEMP:  57;

NEW IBERIA     CLOUDY    52  49  89 NE12      30.16F
6HR MIN TEMP:  50; 6HR MAX TEMP:  52;

CHENAULT AIRPK CLOUDY    52  48  87 N7        30.18F

$$

LAZ027-028-201900-
CENTRAL LOUISIANA

CITY           SKY/WX    TMP DP  RH WIND       PRES   REMARKS
FORT POLK      PTSUNNY   52  45  76 N9        30.19F
ALEXANDRIA INT LGT RAIN  51  43  74 NE8G17    30.20F
6HR MIN TEMP:  46; 6HR MAX TEMP:  52; 6HR PCP: TRACE;

ALEXANDRIA     MOSUNNY   51  43  74 NE7       30.20F
6HR MIN TEMP:  45; 6HR MAX TEMP:  53;


$$

LAZ001-002-201900-
NORTHWEST LOUISIANA

CITY           SKY/WX    TMP DP  RH WIND       PRES   REMARKS
SHREVEPORT     CLOUDY    46  43  89 NE6       30.23F FOG
6HR MIN TEMP:  44; 6HR MAX TEMP:  46;

BARKSDALE AFB  NOT AVBL
DTN SHREVEPORT CLOUDY    44  41  89 NE6       30.24F
6HR MIN TEMP:  43; 6HR MAX TEMP:  44;


$$

LAZ014-016-201900-
NORTHEAST LOUISIANA

CITY           SKY/WX    TMP DP  RH WIND       PRES   REMARKS
MONROE         SUNNY     54  43  66 E8        30.23F
6HR MIN TEMP:  39; 6HR MAX TEMP:  54;

TALLULAH       SUNNY     53  42  66 N7        30.22F
6HR MIN TEMP:  44; 6HR MAX TEMP:  53;


$$



USA.gov is the U.S. government's official web portal to all federal, state and local government web resources and services.